{"data":{"norad_id":64948,"epoch":"2026-09-20T14:03:41.896512Z","epoch_age_seconds":116797,"freshness":"FRESH","line1":"1 64948U 25158S   26263.58590158  .00017183  00000+0  53303-3 0  9998","line2":"2 64948  97.2840 121.8089 0001639 101.1064 259.0363 15.33464185 64710","mean_motion":15.33464185,"eccentricity":0.0001639,"inclination_deg":97.284,"raan_deg":121.8089,"arg_perigee_deg":101.1064,"mean_anomaly_deg":259.0363,"bstar":0.00053303,"rev_number":6471,"period_min":93.905029806744,"perigee_km":464.36442418593,"apogee_km":466.60776383615,"semimajor_km":6843.623094011,"source":"CELESTRAK","updated_at":"2026-09-21T09:00:35.489576Z"}}